Regional Weather Roundup
Issued by NWS Upton, NY

Current Version | Previous Version | Text Only | Print | Product List | Glossary On
Versions: 1 2 3 4 5 6 7 8 9 10 11 12 13 14 15 16 17 18 19 20 21 22 23 24 25 26 27 28 29 30 31 32 33 34 35 36 37 38 39 40 41 42 43 44 45 46 47 48 49 50
064 ASUS41 KOKX 010204 RWROKX REGIONAL WEATHER ROUNDUP NATIONAL WEATHER SERVICE NEW YORK NY 1000 PM EDT TUE MAY 31 2016 NOTE: "FAIR" INDICATES FEW OR NO CLOUDS BELOW 12,000 FEET WITH NO SIGNIFICANT WEATHER AND/OR OBSTRUCTIONS TO VISIBILITY. NYZ071-072-176-178-NJZ106-104-010300- NEW YORK CITY METRO AREA CITY SKY/WX TMP DP RH WIND PRES REMARKS CENTRAL PARK CLEAR 74 63 68 CALM 29.99R LAGUARDIA APRT MOCLDY 75 69 81 SW9 29.96R KENNEDY INTL MOCLDY 70 65 84 S6 29.98R NEWARK/LIBERTY PTCLDY 76 66 71 S3 29.96R BRNX BOT. GARD N/A 70 63 78 NE2 29.97R TETERBORO CLEAR 75 62 64 CALM 29.95R $$ NYZ177-179-078>081-010300- LONG ISLAND NEW YORK CITY SKY/WX TMP DP RH WIND PRES REMARKS FARMINGDALE CLEAR 69 64 84 SW5 29.98R ISLIP PTCLDY 68 65 90 SW8 29.97R SHIRLEY CLEAR 68 66 93 SW3 29.98R RIVERHEAD N/A 68 66 94 CALM 29.96R WESTHAMPTON CLEAR 66 64 93 SW3 29.98R EAST HAMPTON FAIR 65 64 94 CALM 29.96R MONTAUK POINT N/A 65 63 93 CALM 29.97R $$ NYZ052-065-067-010300- HUDSON VALLEY CITY SKY/WX TMP DP RH WIND PRES REMARKS WHITE PLAINS CLEAR 70 64 81 CALM 29.97R NEWBURGH PTCLDY 72 57 60 N6 29.98R MONTGOMERY CLEAR 66 59 78 CALM 29.97R POUGHKEEPSIE PTCLDY 72 60 66 CALM 29.96R ALBANY PTCLDY 67 44 43 W8 29.99R $$ NJZ001-105-106-008-010-013-015-019>022-104-010300- NEW JERSEY CITY SKY/WX TMP DP RH WIND PRES REMARKS NEWARK/LIBERTY PTCLDY 76 66 71 S3 29.96R TETERBORO CLEAR 75 62 64 CALM 29.95R CALDWELL CLEAR 74 63 68 CALM 29.97R MORRISTOWN CLOUDY 66 63 88 CALM 29.97R SOMERVILLE PTCLDY 68 64 87 CALM 29.95R SUSSEX CLEAR 66 60 81 CALM 29.98R ANDOVER N/A 66 62 87 CALM 29.99R TRENTON CLEAR 74 67 78 S7 29.97R MILLVILLE PTCLDY 68 65 90 CALM 29.99R ATLANTIC CITY CLEAR 70 65 84 S5 29.99R WRIGHTSTOWN PTCLDY 71 67 86 S8 29.96R TOMS RIVER CLEAR 70 63 78 SW3 29.98R BELMAR CLEAR 72 67 84 VRB3 29.99R $$ PAZ047>061-062-071-010300- EASTERN PENNSYLVANIA CITY SKY/WX TMP DP RH WIND PRES REMARKS PHILADELPHIA MOCLDY 74 64 71 S8 29.98R ALLENTOWN CLEAR 71 57 61 CALM 29.97R SCRANTON CLEAR 70 57 63 E6 30.01R $$ CTZ002-004>006-009-010-012-RIZ004-006-007-MAZ004-011-015-010300- SOUTHERN NEW ENGLAND IN CT CITY SKY/WX TMP DP RH WIND PRES REMARKS BRADLEY INTL PTCLDY 75 47 36 N7 29.96R HARTFORD CLEAR 74 61 63 S5 29.96R DANBURY PTCLDY 68 61 78 CALM 29.98R WTRBRY/OXFORD N/A 68 61 77 N3 30.00R BRIDGEPORT CLEAR 70 63 78 W5 29.96R MERIDEN CLEAR 70 63 78 CALM 29.97R NEW HAVEN CLEAR 70 62 76 CALM 29.96R CHESTER FAIR 70 64 83 SW6 29.98R GROTON CLEAR 63 62 97 NW3 29.96R WILLIMANTIC CLEAR 71 60 68 CALM 29.97R IN RI CITY SKY/WX TMP DP RH WIND PRES REMARKS PROVIDENCE CLEAR 71 63 75 W9 29.96R BLOCK ISLAND PTCLDY 62 60 93 SW10 29.98R WESTERLY CLEAR 67 61 81 CALM 29.97R IN MA CITY SKY/WX TMP DP RH WIND PRES REMARKS BOSTON PTCLDY 78 51 38 W10 29.93R WORCESTER CLEAR 68 49 50 W10 29.99R WESTFIELD CLEAR 68 52 56 W6 29.97R PROVINCETOWN CLEAR 62 60 93 SW10 29.94R NANTUCKET CLEAR 59 58 96 S6 29.97R $$ ANZ330-335-338-340-345-350-353-355-010300- COASTAL MARINE OBSERVATIONS STATION/POSITION TIME SKY/WX TEMP WIND PRES VSBY WAVE AIR SEA DIR/SP/G HT/PER (UTC) (F) (DEG/KT/KT) (MB) (MI) (FT/S) NY HARB ENTRANCE 0050 63 60 210/ 8/ 8 1013.9 4/ 8 20S FIRE ISLAND 0050 65 63 210/ 10/ 12 1013.9 5/ 8 GREAT SOUTH BAY 0100 69 71 250/ 10/ 12 N/A 23 SSW MONTAUK P 0050 62 60 230/ 6/ 6 1013.9 4/ 7 15 E BARNEGAT LI NOT AVBL HUDSON CANYON 0050 63 62 1014.8 5/ 8 KINGS POINT 0100 60 1013.9 EXECUTION ROCKS NOT AVBL CENTRAL LI SOUND 0100 68 230/ 4/ 6 N/A 1 EASTERN LI SOUND 0100 60 55 120/ 2/ 2 N/A ROBBINS REEF NOT AVBL $$ >>>>>>>>>>>>>>>>>>>>>>>>>>>> KEY <<<<<<<<<<<<<<<<<<<<<<<<<<< > < > SKY/WX - SKY CONDITION/PRESENT WEATHER < > TMP - TEMPERATURE IN FAHRENHEIT < > DP - DEWPOINT IN FAHRENHEIT < > RH - RELATIVE HUMIDITY IN PERCENT < > WIND - DIRECTION AND SPEED IN MPH < > PRES - MEAN SEA LEVEL PRESSURE IN INCHES OF HG < > WCI - WIND CHILL INDEX < > VSB - VISIBILITY IN MILES < > HX - HEAT INDEX < > TC - TEMPERATURE IN CELSIUS < > VRB - VARIABLE WIND DIRECTION < > < >>>>>>>>>>>>>>>>>>>>>>>>>>>> KEY <<<<<<<<<<<<<<<<<<<<<<<<<<<

USA.gov is the U.S. government's official web portal to all federal, state and local government web resources and services.